FW4373 Weather Reports


Display with metric or nautical units.
time (UTC)temp
F
wind
direction
speed
MPH
gust
MPH
rain 1hr
in
rain 24hr
in
rain mn
in
humidity
%
barometer
mb
20260510151525 53 0 4.0 11.0 0.00 0.00 0.00 67 1015.9
20260510150027 53 88 1.0 10.0 0.00 0.00 0.00 67 1016.1
20260510144527 53 0 3.0 14.0 0.00 0.00 0.00 68 1016.3
20260510143027 53 0 1.0 14.0 0.00 0.00 0.00 68 1016.4
20260510141534 53 0 2.0 13.0 0.00 0.00 0.00 68 1016.5
20260510140028 54 0 0.0 14.0 0.00 0.00 0.00 69 1016.6
20260510134528 54 61 1.0 14.0 0.00 0.00 0.00 69 1016.6
20260510133030 53 66 1.0 15.0 0.00 0.00 0.00 70 1016.7
20260510131526 54 0 0.0 13.0 0.00 0.00 0.00 70 1016.7
20260510130028 54 109 0.0 12.0 0.00 0.00 0.00 71 1016.9
20260510124527 54 77 4.0 16.0 0.00 0.00 0.00 70 1017.0
20260510123028 55 80 1.0 14.0 0.00 0.00 0.00 70 1017.1
20260510121528 54 63 2.0 16.0 0.00 0.00 0.00 69 1017.1
20260510120029 54 90 6.0 19.0 0.00 0.00 0.00 70 1017.1
20260510114530 55 94 4.0 15.0 0.00 0.00 0.00 68 1017.3
20260510113028 55 75 2.0 15.0 0.00 0.00 0.00 67 1017.3
20260510111526 56 116 5.0 16.0 0.00 0.00 0.00 66 1017.6
20260510110032 55 0 3.0 19.0 0.00 0.00 0.00 68 1017.5
20260510104528 54 0 3.0 14.0 0.00 0.00 0.00 70 1017.6
20260510103028 56 88 1.0 11.0 0.00 0.00 0.00 67 1017.7
20260510101527 55 81 5.0 18.0 0.00 0.00 0.00 66 1017.7
20260510100034 54 0 3.0 16.0 0.00 0.00 0.00 68 1017.7
20260510094530 53 0 4.0 20.0 0.00 0.00 0.00 70 1017.7
20260510093036 53 0 3.0 18.0 0.00 0.00 0.00 71 1017.9
20260510091529 53 110 4.0 20.0 0.00 0.00 0.00 71 1018.0
20260510090031 53 76 2.0 15.0 0.00 0.00 0.00 72 1018.1
20260510084532 52 77 1.0 12.0 0.00 0.00 0.00 74 1018.2
20260510083029 52 0 1.0 12.0 0.00 0.00 0.00 76 1018.2
20260510081527 51 77 2.0 12.0 0.00 0.00 0.00 77 1018.2
20260510080028 50 113 1.0 14.0 0.00 0.00 0.00 79 1018.3
20260510074527 50 0 0.0 7.0 0.00 0.00 0.00 79 1018.3
20260510073028 49 47 1.0 7.0 0.00 0.00 0.00 80 1018.3
20260510071537 49 0 3.0 16.0 0.00 0.00 0.00 81 1018.3
20260510070026 49 72 1.0 10.0 0.00 0.00 0.00 82 1018.3
20260510064528 49 90 4.0 16.0 0.00 0.00 0.00 82 1018.1
20260510063029 49 97 1.0 10.0 0.00 0.00 0.00 83 1018.1
20260510061541 48 90 1.0 9.0 0.00 0.00 0.00 84 1018.2
20260510060029 48 92 2.0 10.0 0.00 0.00 0.00 84 1018.0
20260510054528 48 67 1.0 9.0 0.00 0.00 0.00 84 1018.0
20260510053025 48 91 2.0 9.0 0.00 0.00 0.00 84 1018.1
20260510051527 48 92 1.0 14.0 0.00 0.00 0.00 84 1018.2
20260510050027 48 0 1.0 7.0 0.00 0.00 0.00 84 1018.1
20260510044528 48 0 1.0 10.0 0.00 0.00 0.00 84 1018.0
20260510043028 48 70 2.0 10.0 0.00 0.00 0.00 84 1018.0
20260510041527 48 0 0.0 6.0 0.00 0.00 0.00 83 1018.2
20260510040030 48 53 2.0 8.0 0.00 0.00 0.00 83 1018.1
20260510034529 48 0 1.0 9.0 0.00 0.00 0.00 82 1018.3
20260510033028 48 75 1.0 6.0 0.00 0.00 0.00 83 1018.5
20260510031538 48 0 0.0 5.0 0.00 0.00 0.00 83 1018.5
20260510030025 49 0 0.0 4.0 0.00 0.00 0.00 83 1018.4
20260510024655 49 0 0.0 2.0 0.00 0.00 0.00 83 1018.5
20260510023027 49 0 0.0 5.0 0.00 0.00 0.00 83 1018.4
20260510021529 49 0 0.0 0.0 0.00 0.00 0.00 83 1018.4
20260510020028 49 0 0.0 8.0 0.00 0.00 0.00 82 1018.4
20260510014526 50 0 2.0 8.0 0.00 0.00 0.00 81 1018.4
20260510013029 50 114 2.0 8.0 0.00 0.00 0.00 79 1018.5
20260510011536 50 0 0.0 6.0 0.00 0.00 0.00 75 1018.6
20260510010025 51 0 1.0 9.0 0.00 0.00 0.00 71 1018.4
20260510004527 51 0 1.0 10.0 0.00 0.00 0.00 65 1018.4
20260510003054 52 84 1.0 8.0 0.00 0.00 0.00 63 1018.5
20260510001531 52 0 1.0 10.0 0.00 0.00 0.00 62 1018.5
20260510000028 52 0 1.0 6.0 0.00 0.00 0.00 62 1018.3
20260509234529 53 0 1.0 6.0 0.00 0.00 0.00 61 1018.4
20260509233029 53 0 0.0 5.0 0.00 0.00 0.00 61 1018.2
20260509231532 53 0 0.0 3.0 0.00 0.00 0.00 61 1018.2
20260509230031 54 0 0.0 0.0 0.00 0.00 0.00 60 1018.2
20260509224529 54 0 0.0 0.0 0.00 0.00 0.00 60 1018.2
20260509223030 54 0 0.0 0.0 0.00 0.00 0.00 58 1018.0
20260509221526 55 0 0.0 0.0 0.00 0.00 0.00 57 1018.1
20260509220026 55 0 0.0 3.0 0.00 0.00 0.00 56 1018.1
20260509214525 55 0 0.0 4.0 0.00 0.00 0.00 55 1018.0
20260509213026 56 0 0.0 0.0 0.00 0.00 0.00 55 1018.2
20260509211528 56 0 0.0 1.0 0.00 0.00 0.00 55 1018.0
20260509210028 57 0 0.0 4.0 0.00 0.00 0.00 52 1017.7
20260509204528 58 0 0.0 8.0 0.00 0.00 0.00 51 1017.6
20260509203034 59 0 0.0 8.0 0.00 0.00 0.00 50 1017.4
20260509201530 59 0 1.0 7.0 0.00 0.00 0.00 49 1017.4
20260509200028 60 107 1.0 7.0 0.00 0.00 0.00 48 1017.3
20260509194533 60 114 1.0 10.0 0.00 0.00 0.00 48 1017.3
20260509193026 61 107 2.0 7.0 0.00 0.00 0.00 47 1017.2
20260509191528 62 113 1.0 7.0 0.00 0.00 0.00 46 1017.0
20260509190029 63 0 0.0 8.0 0.00 0.00 0.00 46 1017.0
20260509184528 64 0 1.0 9.0 0.00 0.00 0.00 45 1016.8
20260509183028 64 119 1.0 9.0 0.00 0.00 0.00 45 1016.7
20260509181541 65 112 3.0 8.0 0.00 0.00 0.00 43 1016.5
20260509180028 66 79 0.0 9.0 0.00 0.00 0.00 42 1016.5
20260509174526 67 0 2.0 10.0 0.00 0.00 0.00 41 1016.4
20260509173028 68 92 4.0 10.0 0.00 0.00 0.00 40 1016.2
20260509171528 68 0 2.0 9.0 0.00 0.00 0.00 40 1016.1
20260509170026 69 0 2.0 12.0 0.00 0.00 0.00 40 1016.4
20260509164525 69 0 1.0 10.0 0.00 0.00 0.00 40 1016.4
20260509161526 69 0 0.0 7.0 0.00 0.00 0.00 38 1016.2
20260509160025 69 0 3.0 12.0 0.00 0.00 0.00 38 1016.3
20260509154526 70 63 2.0 10.0 0.00 0.00 0.00 39 1016.6
20260509153028 69 0 1.0 8.0 0.00 0.00 0.00 39 1016.7